Alpena, MI

10:54 AM EST on February 27, 2017 (GMT -0500)
Alpena County Regional

Weather History for KAPN - October, 2011

Change the Weather History Date:

Monday, October 31, 2011

  Actual Average Record
Temperature  
Mean Temperature 46 °F 41 °F  
Max Temperature 56 °F 50 °F 77 °F (1950)
Min Temperature 35 °F 32 °F 17 °F (1925)
Degree Days  
Heating Degree Days 19 24  
Month to date heating degree days 519 586  
Since 1 July heating degree days 789 944  
Cooling Degree Days 0 0  
Month to date cooling degree days 6 2  
Year to date cooling degree days 405 291  
Moisture  
Dew Point 38 °F    
Average Humidity 72    
Maximum Humidity 93    
Minimum Humidity 51    
Precipitation  
Precipitation T in 0.07 in 0.62 in (2015)
Month to date precipitation 4.13 2.61  
Year to date precipitation 33.33 24.31  
Snow  
Snow 0.00 in 0.00 in 0.30 in (1934)
Month to date snowfall 0.0 0.4  
Since 1 July snowfall 0.0 0.4  
Snow Depth 0.00 in    
Sea Level Pressure  
Sea Level Pressure 30.06 in    
Wind  
Wind Speed 8 mph (South)    
Max Wind Speed 16 mph    
Max Gust Speed 22 mph    
Visibility 10 miles    
Events Rain    
T = Trace of Precipitation, MM = Missing Value Source: NWS Daily Summary

Daily Weather History Graph

Daily Weather History Graph

Search for Another Location

Airport or City:

Trip Planner

Search our weather history database for the weather conditions in past years. The results will help you decide how hot, cold, wet, or windy it might be!

Date:

Astronomy

Oct. 31, 2011 Rise Set
Actual Time 8:11 AM EDT 6:23 PM EDT
Civil Twilight 7:40 AM EDT 6:54 PM EDT
Nautical Twilight 7:05 AM EDT 7:29 PM EDT
Astronomical Twilight 6:31 AM EDT 8:03 PM EDT
Moon 1:23 PM EDT (10/31) 10:53 PM EDT (10/31)
Length of Visible Light 11h 13m
Length of Day
10h 12m
Waxing Crescent, 29% of the Moon is Illuminated
Oct 31
Waxing Crescent
Nov 2
First Quarter
Nov 10
Full
Nov 18
Last Quarter
Nov 25
New

Hourly Weather History & Observations

Time (EDT) Temp. Windchill Dew Point Humidity Pressure Visibility Wind Dir Wind Speed Gust Speed Precip Events Conditions
12:54 AM 43.0 °F 38.8 °F 36.0 °F 76% 30.07 in 10.0 mi SSE 6.9 mph - N/A   Overcast
1:54 AM 44.1 °F 40.1 °F 36.0 °F 73% 30.06 in 10.0 mi SE 6.9 mph - N/A   Overcast
2:54 AM 45.0 °F 40.1 °F 37.0 °F 74% 30.06 in 10.0 mi SSE 9.2 mph - N/A   Overcast
3:54 AM 45.0 °F 39.7 °F 37.9 °F 76% 30.05 in 10.0 mi South 10.4 mph - 0.00 in Rain Light Rain
4:54 AM 43.0 °F 38.8 °F 39.9 °F 89% 30.04 in 10.0 mi SSE 6.9 mph - 0.00 in   Overcast
5:54 AM 44.1 °F 40.1 °F 39.9 °F 85% 30.05 in 10.0 mi South 6.9 mph - 0.00 in   Overcast
6:32 AM 42.8 °F 38.0 °F 39.2 °F 87% 30.03 in 10.0 mi SSE 8.1 mph - N/A   Overcast
6:54 AM 44.1 °F 39.5 °F 39.9 °F 85% 30.04 in 10.0 mi South 8.1 mph - N/A   Overcast
7:54 AM 42.1 °F 37.1 °F 39.0 °F 89% 30.04 in 10.0 mi SSE 8.1 mph - N/A   Overcast
8:54 AM 41.0 °F 39.0 °F 39.0 °F 93% 30.05 in 9.0 mi South 3.5 mph - N/A   Scattered Clouds
9:54 AM 46.0 °F 41.9 °F 39.9 °F 79% 30.06 in 10.0 mi South 8.1 mph - N/A   Mostly Cloudy
10:54 AM 46.9 °F - 39.9 °F 77% 30.06 in 10.0 mi South 12.7 mph - N/A   Overcast
11:54 AM 50.0 °F - 39.9 °F 68% 30.06 in 10.0 mi South 12.7 mph 18.4 mph N/A   Mostly Cloudy
12:54 PM 51.1 °F - 39.0 °F 63% 30.05 in 10.0 mi South 9.2 mph - N/A   Mostly Cloudy
1:54 PM 54.0 °F - 37.9 °F 55% 30.02 in 10.0 mi South 11.5 mph - N/A   Scattered Clouds
2:54 PM 55.9 °F - 37.0 °F 49% 30.01 in 10.0 mi South 12.7 mph 17.3 mph N/A   Partly Cloudy
3:54 PM 55.9 °F - 37.9 °F 51% 30.02 in 10.0 mi SSE 11.5 mph - N/A   Partly Cloudy
4:54 PM 54.0 °F - 37.0 °F 53% 30.03 in 10.0 mi South 8.1 mph - N/A   Mostly Cloudy
5:54 PM 51.1 °F - 36.0 °F 56% 30.04 in 10.0 mi South 10.4 mph - N/A   Clear
6:54 PM 44.1 °F 40.8 °F 35.1 °F 71% 30.06 in 10.0 mi SSE 5.8 mph - N/A   Clear
7:54 PM 42.1 °F 38.4 °F 35.1 °F 76% 30.08 in 10.0 mi SSE 5.8 mph - N/A   Clear
8:54 PM 39.9 °F 36.7 °F 35.1 °F 83% 30.10 in 10.0 mi SSW 4.6 mph - N/A   Clear
9:54 PM 39.9 °F 35.8 °F 36.0 °F 86% 30.11 in 10.0 mi South 5.8 mph - N/A   Overcast
10:54 PM 44.1 °F 40.8 °F 36.0 °F 73% 30.12 in 10.0 mi SSW 5.8 mph - N/A   Clear
11:54 PM 39.9 °F 35.8 °F 35.1 °F 83% 30.12 in 10.0 mi South 5.8 mph - N/A   Clear